Location: Unspecified
(0.0000°N, 0.0000°E)
Time: 04:12:06
(UTC+00:00)

SKYMED 4 - Visible Passes

Search period start: 23 January 2018 00:00
Search period end: 02 February 2018 00:00
Orbit: 621 x 623 km, 97.9° (Epoch: 22 January)

Date Brightness Start Highest point End Pass type
(mag) Time Alt. Az. Time Alt. Az. Time Alt. Az.
23 Jan 5.1 05:42:47 10° S 05:47:08 84° WSW 05:51:27 10° NNW visible
25 Jan 8.0 04:45:10 10° ESE 04:47:12 13° ENE 04:49:14 10° NE visible
26 Jan 7.4 05:01:43 10° SE 05:05:11 23° ENE 05:08:37 10° NNE visible
26 Jan 8.5 18:49:22 10° WNW 18:49:59 10° WNW 18:50:36 10° W visible
27 Jan 6.4 05:19:04 10° SSE 05:23:10 42° ENE 05:27:14 10° N visible
28 Jan 5.2 05:36:48 10° SSE 05:41:09 79° ENE 05:45:27 10° N visible
30 Jan 8.3 04:40:16 10° E 04:41:14 11° ENE 04:42:10 10° ENE visible
31 Jan 7.7 04:56:05 10° SE 04:59:12 19° ENE 05:02:18 10° NNE visible
31 Jan 8.2 18:42:06 10° NW 18:44:00 13° WNW 18:45:56 10° WSW visible
01 Feb 6.8 05:13:14 10° SE 05:17:11 34° ENE 05:21:06 10° NNE visible
